Tracking 20628 objects as of 6-Apr-2020
HD Live streaming from Space Station
objects crossing your sky now

COSMOS 1912

Track COSMOS 1912 now!
10-day predictions
COSMOS 1912 is classified as:


NORAD ID: 18791
Int'l Code: 1988-002D
Perigee: 1,401.2 km
Apogee: 1,417.8 km
Inclination: 82.6 °
Period: 113.8 minutes
Semi major axis: 7780 km
RCS: 1.1982 m2 (large)
Launch date: January 15, 1988
Source: Commonwealth of Independent States (former USSR) (CIS)
Launch site: PLESETSK MISSILE AND SPACE COMPLEX (PKMTR)
aabbcc
Your satellite tracking list
Your tracking list is empty




NASA's NSSDC Master Catalog

Two Line Element Set (TLE):
1 18791U 88002D   20096.84196569  .00000004  00000-0 -35235-4 0  9996
2 18791  82.6080 243.9574 0010650 214.7007 255.1968 12.64999522487957
Source of the keplerian elements: AFSPC